This is the latest recevied weather packets stored in our database for station/object HB9TJM-8. If no packets are shown the sender has not sent any weather packets the latest 1 day(s).
| Time | Temp. | Humidity | Pressure | Rain* | Wind** | Luminosity | Snow |
|---|---|---|---|---|---|---|---|
| 1778020027 | 8.33° C | 90% | 1011.1 hPa | 0 mm | 0 m/s | 0 W/m² | - |
| 1778019720 | 8.89° C | 89% | 1011.5 hPa | 0 mm | 0.89 m/s, 173° | 0 W/m² | - |
| 1778019412 | 8.89° C | 87% | 1011.3 hPa | 0 mm | 1.34 m/s, 302° | 0 W/m² | - |
| 1778019104 | 8.89° C | 85% | 1011.3 hPa | 0 mm | 2.68 m/s, 235° | 0 W/m² | - |
| 1778018797 | 8.89° C | 83% | 1011.4 hPa | 0 mm | 2.68 m/s, 218° | 0 W/m² | - |
| 1778018489 | 8.89° C | 85% | 1011.6 hPa | 0 mm | 0.45 m/s, 224° | 0 W/m² | - |
| 1778018182 | 8.33° C | 85% | 1011.4 hPa | 0 mm | 0.89 m/s, 325° | 0 W/m² | - |
| 1778017875 | 8.89° C | 84% | 1011.2 hPa | 0 mm | 0.89 m/s, 130° | 0 W/m² | - |
| 1778017567 | 8.89° C | 82% | 1011.5 hPa | 0 mm | 0 m/s | 0 W/m² | - |
| 1778017260 | 8.89° C | 82% | 1011.5 hPa | 0 mm | 2.24 m/s, 1° | 0 W/m² | - |
| 1778016952 | 8.89° C | 81% | 1011.2 hPa | 0 mm | 0.45 m/s, 44° | 0 W/m² | - |
| 1778016645 | 8.89° C | 84% | 1011.3 hPa | 0 mm | 0.89 m/s, 12° | 0 W/m² | - |
| 1778016338 | 8.89° C | 85% | 1011.3 hPa | 0 mm | 0.45 m/s, 22° | 0 W/m² | - |
| 1778016030 | 8.89° C | 82% | 1011.4 hPa | 0 mm | 0.89 m/s, 201° | 0 W/m² | - |
| 1778015723 | 8.33° C | 84% | 1010.9 hPa | 0 mm | 0.45 m/s, 94° | 0 W/m² | - |
| 1778015415 | 8.33° C | 85% | 1011.5 hPa | 0 mm | 0.45 m/s, 293° | 0 W/m² | - |
| 1778015107 | 8.33° C | 86% | 1011.2 hPa | 0 mm | 1.34 m/s, 64° | 0 W/m² | - |
| 1778014800 | 8.33° C | 88% | 1011.5 hPa | 0 mm | 0.89 m/s, 327° | 0 W/m² | - |
| 1778014492 | 8.33° C | 86% | 1011.4 hPa | 0 mm | 2.24 m/s, 9° | 0 W/m² | - |
| 1778014185 | 8.33° C | 88% | 1011.5 hPa | 0 mm | 1.34 m/s, 2° | 0 W/m² | - |
| 1778013878 | 8.33° C | 90% | 1011.4 hPa | 0 mm | 0.89 m/s, 344° | 0 W/m² | - |
| 1778013570 | 8.33° C | 88% | 1011.5 hPa | 0 mm | 0.89 m/s, 0° | 0 W/m² | - |
| 1778013263 | 8.33° C | 89% | 1011.8 hPa | 0 mm | 0 m/s | 0 W/m² | - |
| 1778012956 | 8.33° C | 90% | 1011.6 hPa | 0 mm | 0.89 m/s, 351° | 0 W/m² | - |
| 1778012648 | 8.33° C | 90% | 1011 hPa | 0 mm | 0.89 m/s, 116° | 0 W/m² | - |
* Rain latest hour (hover to see other rain measurements)
** Current wind speed in m/s (hover to see current wind gust speed)